STARLINK-32253, 60733

Orbit data source: Space-Track

STARLINK-32253, 60733 is a payload satellite owned by SpaceX/Seattle (US) in LEO that was launched on Wed, 28 Aug 2024 UTC via an FALCON 9 launch vehicle from the Air Force Eastern Test Range (AFETR). Payload-class satellites include a variety of spacecraft equipped with specific instruments for various scientific and technological missions. These include communications satellites like Starlink; space stations such as the ISS; scientific satellites like the Hubble; Earth observation satellites from companies like Planet Labs, Umbra, and HawkEye 360; GPS; miniature CubeSats for education and research; and military/defense satellites.

Loading next visibility...
Identifier
60733, 2024-152P
Orbit
LEO
Country
Flag of USUS
Related business
Manufacturer
SpaceX/Seattle
Mission
Operational Commercial Communications
Bus & Motor
STARLINK V2M, Unknown motor
Mass
730 kg wet, ~700 kg dry
Launch date (UTC)
2024-08-28 (1 year ago)
Launch vehicle
FALCON 9
Launch site
Air Force Eastern Test Range (AFETR)
Object type
Payload
Rocket body
Debris
Shape & HBR
Box + 2 Pan, 17.7 m
Radar Cross Section
33.884 m², Large (>1 m²)

Expand to show TLE details & history
Last TLE update: 9 hours ago

TLE from 9 hours ago
0 STARLINK-32253
1 60733U 24152P   25310.90948500  .00000474  00000-0  28138-4 0  9990
2 60733  53.1621 118.6522 0000916 101.1749 258.9355 15.30190489 68004
Epoch: 2025-11-06T21:49Z
TLE epoch observation values (Epoch: 2025-11-06T21:49:39.503Z)
Latitude
0.00002°
Longitude
104.87658°
Altitude
476.264 km
Speed
7.629 km/s
True Right ascension
07h 54m 36s
True Declination
0° 00' 00"
Sunlit
Object was in daylight at epoch
Visualization orbit readout
Latitude
Unknown
Longitude
Unknown
Altitude
Unknown
Speed
Unknown
Apparent Right ascension
Unknown
Apparent Declination
Unknown
Sunlit
N/A
Visualization observer readout
Local Sidereal Time
02:58:04
Azimuth
Unknown
Elevation
Unknown
Doppler factor
Unknown
Orbital elements
Apogee altitude
476.127 km
Perigee altitude
474.872 km
Semi-major axis
6,853.637 km
Eccentricity
0.00009
Inclination
53.1621°
RAAN
118.6522°
Arg. of periapsis
101.1749°
True anomaly
258.9252°
Mean anomaly
258.9355°
Eccentric anomaly
258.93035°
Mean motion
3.82527 °/min
Orbital period
94.11 mins
BSTAR
0.000028138
Loading maneuver chart data...
Computing Atmospheric mass density...
Loading historical data...
Loading historical data...
Loading historical data...
Loading historical data...
Loading historical data...
Loading historical data...
Loading historical data...

Documentation

Showing up to 5 results
|